Time,TemperatureF,DewpointF,PressureIn,WindDirection,WindDirectionDegrees,WindSpeedMPH,WindSpeedGustMPH,Humidity,HourlyPrecipIn,Conditions,Clouds,dailyrainin,SoftwareType,DateUTC
2013-09-09 00:01:00,75.8,69.6,29.92,North,32767,0.0,0.0,81,0.00,,,0.00,Wunderground v.1.13,2013-09-09 04:01:00,
2013-09-09 00:02:00,75.8,69.9,29.92,North,32767,0.0,0.0,82,0.00,,,0.00,Wunderground v.1.13,2013-09-09 04:02:00,
2013-09-09 00:03:00,75.8,69.9,29.92,North,32767,0.0,0.0,82,0.00,,,0.00,Wunderground v.1.13,2013-09-09 04:03:00,
2013-09-09 00:05:00,75.6,69.7,29.92,North,32767,0.0,0.0,82,0.00,,,0.00,Wunderground v.1.13,2013-09-09 04:05:00,
2013-09-09 00:10:00,75.6,69.7,29.92,North,32767,0.0,0.0,82,0.00,,,0.00,Wunderground v.1.13,2013-09-09 04:10:00,
2013-09-09 00:15:00,75.4,69.5,29.91,North,32767,0.0,0.0,82,0.00,,,0.00,Wunderground v.1.13,2013-09-09 04:15:00,
2013-09-09 00:20:00,75.3,69.4,29.91,North,32767,0.0,0.0,82,0.00,,,0.00,Wunderground v.1.13,2013-09-09 04:20:00,
2013-09-09 00:25:00,75.1,69.2,29.91,North,32767,0.0,0.0,82,0.00,,,0.00,Wunderground v.1.13,2013-09-09 04:25:00,
2013-09-09 00:31:00,75.1,69.2,29.91,North,32767,0.0,0.0,82,0.00,,,0.00,Wunderground v.1.13,2013-09-09 04:31:00,
2013-09-09 00:33:00,74.9,69.0,29.91,North,32767,0.0,0.0,82,0.00,,,0.00,Wunderground v.1.13,2013-09-09 04:33:00,
2013-09-09 00:39:00,74.7,68.8,29.91,North,32767,0.0,0.0,82,0.00,,,0.00,Wunderground v.1.13,2013-09-09 04:39:00,
2013-09-09 00:44:00,74.6,68.7,29.91,North,32767,0.0,0.0,82,0.00,,,0.00,Wunderground v.1.13,2013-09-09 04:44:00,
2013-09-09 00:50:00,74.4,68.5,29.91,North,32767,0.0,0.0,82,0.00,,,0.00,Wunderground v.1.13,2013-09-09 04:50:00,
2013-09-09 00:56:00,74.2,68.7,29.91,North,32767,0.0,0.0,83,0.00,,,0.00,Wunderground v.1.13,2013-09-09 04:56:00,
2013-09-09 01:01:00,74.0,68.5,29.91,North,32767,0.0,0.0,83,0.00,,,0.00,Wunderground v.1.13,2013-09-09 05:01:00,
2013-09-09 01:06:00,73.9,68.4,29.91,North,32767,0.0,0.0,83,0.00,,,0.00,Wunderground v.1.13,2013-09-09 05:06:00,
2013-09-09 01:11:00,73.7,68.2,29.91,North,32767,0.0,0.0,83,0.00,,,0.00,Wunderground v.1.13,2013-09-09 05:11:00,
2013-09-09 01:17:00,73.5,68.0,29.91,North,32767,0.0,0.0,83,0.00,,,0.00,Wunderground v.1.13,2013-09-09 05:17:00,
2013-09-09 01:22:00,73.3,67.8,29.91,North,32767,0.0,0.0,83,0.00,,,0.00,Wunderground v.1.13,2013-09-09 05:22:00,
2013-09-09 01:28:00,73.2,68.1,29.91,North,-999,0.0,0.0,84,0.00,,,-99.99,WeatherLink 6.0.2,2013-09-09 05:28:00,
2013-09-09 01:33:00,73.0,67.9,29.91,North,-999,0.0,0.0,84,0.00,,,-99.99,WeatherLink 6.0.2,2013-09-09 05:33:00,
2013-09-09 01:38:00,73.0,67.9,29.91,North,-999,0.0,0.0,84,0.00,,,-99.99,WeatherLink 6.0.2,2013-09-09 05:38:00,
2013-09-09 01:44:00,72.7,67.6,29.91,North,32767,0.0,0.0,84,0.00,,,0.00,Wunderground v.1.13,2013-09-09 05:44:00,
2013-09-09 01:49:00,72.5,67.4,29.90,North,32767,0.0,0.0,84,0.00,,,0.00,Wunderground v.1.13,2013-09-09 05:49:00,
2013-09-09 01:54:00,72.3,67.2,29.90,North,32767,0.0,0.0,84,0.00,,,0.00,Wunderground v.1.13,2013-09-09 05:54:00,
2013-09-09 02:00:00,72.1,67.0,29.90,North,32767,0.0,0.0,84,0.00,,,0.00,Wunderground v.1.13,2013-09-09 06:00:00,
2013-09-09 02:05:00,72.1,67.3,29.90,North,32767,0.0,0.0,85,0.00,,,0.00,Wunderground v.1.13,2013-09-09 06:05:00,
2013-09-09 02:10:00,72.0,67.2,29.90,North,32767,0.0,0.0,85,0.00,,,0.00,Wunderground v.1.13,2013-09-09 06:10:00,
2013-09-09 02:15:00,71.8,67.0,29.89,North,32767,0.0,0.0,85,0.00,,,0.00,Wunderground v.1.13,2013-09-09 06:15:00,
2013-09-09 02:20:00,71.8,67.0,29.89,North,32767,0.0,0.0,85,0.00,,,0.00,Wunderground v.1.13,2013-09-09 06:20:00,
2013-09-09 02:25:00,71.6,66.8,29.89,North,32767,0.0,0.0,85,0.00,,,0.00,Wunderground v.1.13,2013-09-09 06:25:00,
2013-09-09 02:30:00,71.6,66.8,29.89,North,32767,0.0,0.0,85,0.00,,,0.00,Wunderground v.1.13,2013-09-09 06:30:00,
2013-09-09 02:35:00,71.5,66.8,29.89,North,32767,0.0,0.0,85,0.00,,,0.00,Wunderground v.1.13,2013-09-09 06:35:00,
2013-09-09 02:41:00,71.3,66.6,29.89,North,32767,0.0,0.0,85,0.00,,,0.00,Wunderground v.1.13,2013-09-09 06:41:00,
2013-09-09 02:46:00,71.3,66.6,29.89,North,32767,0.0,0.0,85,0.00,,,0.00,Wunderground v.1.13,2013-09-09 06:46:00,
2013-09-09 02:51:00,71.1,66.4,29.89,North,32767,0.0,0.0,85,0.00,,,0.00,Wunderground v.1.13,2013-09-09 06:51:00,
2013-09-09 02:55:00,71.1,66.4,29.89,North,-999,0.0,0.0,85,0.00,,,-99.99,WeatherLink 6.0.2,2013-09-09 06:55:00,
2013-09-09 02:56:00,71.1,66.4,29.89,North,32767,0.0,0.0,85,0.00,,,0.00,Wunderground v.1.13,2013-09-09 06:56:00,
2013-09-09 03:00:00,70.9,66.2,29.89,North,-999,0.0,0.0,85,0.00,,,-99.99,WeatherLink 6.0.2,2013-09-09 07:00:00,
2013-09-09 03:01:00,70.9,66.2,29.89,North,32767,0.0,0.0,85,0.00,,,0.00,Wunderground v.1.13,2013-09-09 07:01:00,
2013-09-09 03:05:00,70.8,66.1,29.89,North,-999,0.0,0.0,85,0.00,,,-99.99,WeatherLink 6.0.2,2013-09-09 07:05:00,
2013-09-09 03:06:00,70.8,66.1,29.89,North,32767,0.0,0.0,85,0.00,,,0.00,Wunderground v.1.13,2013-09-09 07:06:00,
2013-09-09 03:10:00,70.8,66.4,29.89,North,-999,0.0,0.0,86,0.00,,,-99.99,WeatherLink 6.0.2,2013-09-09 07:10:00,
2013-09-09 03:11:00,70.8,66.4,29.89,North,32767,0.0,0.0,86,0.00,,,0.00,Wunderground v.1.13,2013-09-09 07:11:00,
2013-09-09 03:15:00,70.8,66.4,29.88,North,-999,0.0,0.0,86,0.00,,,-99.99,WeatherLink 6.0.2,2013-09-09 07:15:00,
2013-09-09 03:16:00,70.8,66.4,29.88,North,32767,0.0,0.0,86,0.00,,,0.00,Wunderground v.1.13,2013-09-09 07:16:00,
2013-09-09 03:20:00,70.6,66.2,29.88,North,-999,0.0,0.0,86,0.00,,,-99.99,WeatherLink 6.0.2,2013-09-09 07:20:00,
2013-09-09 03:21:00,70.6,66.2,29.88,North,32767,0.0,0.0,86,0.00,,,0.00,Wunderground v.1.13,2013-09-09 07:21:00,
2013-09-09 03:25:00,70.6,66.2,29.88,North,-999,0.0,0.0,86,0.00,,,-99.99,WeatherLink 6.0.2,2013-09-09 07:25:00,
2013-09-09 03:26:00,70.6,66.2,29.88,North,32767,0.0,0.0,86,0.00,,,0.00,Wunderground v.1.13,2013-09-09 07:26:00,
2013-09-09 03:32:00,70.6,66.2,29.88,North,32767,0.0,0.0,86,0.00,,,0.00,Wunderground v.1.13,2013-09-09 07:32:00,
2013-09-09 03:37:00,70.4,66.0,29.88,North,32767,0.0,0.0,86,0.00,,,0.00,Wunderground v.1.13,2013-09-09 07:37:00,
2013-09-09 03:42:00,70.4,66.0,29.88,North,32767,0.0,0.0,86,0.00,,,0.00,Wunderground v.1.13,2013-09-09 07:42:00,
2013-09-09 03:47:00,70.4,66.3,29.88,North,32767,0.0,0.0,87,0.00,,,0.00,Wunderground v.1.13,2013-09-09 07:47:00,
2013-09-09 03:52:00,70.4,66.3,29.88,North,32767,0.0,0.0,87,0.00,,,0.00,Wunderground v.1.13,2013-09-09 07:52:00,
2013-09-09 03:57:00,70.6,66.9,29.88,North,32767,0.0,0.0,88,0.00,,,0.00,Wunderground v.1.13,2013-09-09 07:57:00,
2013-09-09 04:02:00,70.8,67.1,29.88,North,32767,0.0,0.0,88,0.00,,,0.00,Wunderground v.1.13,2013-09-09 08:02:00,
2013-09-09 04:07:00,70.8,67.1,29.88,North,32767,0.0,0.0,88,0.00,,,0.00,Wunderground v.1.13,2013-09-09 08:07:00,
2013-09-09 04:12:00,70.8,67.1,29.88,North,32767,0.0,0.0,88,0.00,,,0.00,Wunderground v.1.13,2013-09-09 08:12:00,
2013-09-09 04:17:00,70.8,67.1,29.88,North,32767,0.0,0.0,88,0.00,,,0.00,Wunderground v.1.13,2013-09-09 08:17:00,
2013-09-09 04:22:00,70.8,67.1,29.88,North,32767,0.0,0.0,88,0.00,,,0.00,Wunderground v.1.13,2013-09-09 08:22:00,
2013-09-09 04:27:00,70.8,67.1,29.88,North,32767,0.0,0.0,88,0.00,,,0.00,Wunderground v.1.13,2013-09-09 08:27:00,
2013-09-09 04:32:00,70.8,67.1,29.88,North,32767,0.0,0.0,88,0.00,,,0.00,Wunderground v.1.13,2013-09-09 08:32:00,
2013-09-09 04:37:00,70.8,67.1,29.88,North,32767,0.0,0.0,88,0.00,,,0.00,Wunderground v.1.13,2013-09-09 08:37:00,
2013-09-09 04:42:00,70.8,67.1,29.88,North,32767,0.0,0.0,88,0.00,,,0.00,Wunderground v.1.13,2013-09-09 08:42:00,
2013-09-09 04:47:00,70.8,67.4,29.88,North,32767,0.0,0.0,89,0.00,,,0.00,Wunderground v.1.13,2013-09-09 08:47:00,
2013-09-09 04:52:00,70.8,67.4,29.88,North,32767,0.0,0.0,89,0.00,,,0.00,Wunderground v.1.13,2013-09-09 08:52:00,
2013-09-09 04:57:00,70.9,67.5,29.88,North,32767,0.0,0.0,89,0.00,,,0.00,Wunderground v.1.13,2013-09-09 08:57:00,
2013-09-09 05:02:00,70.9,67.5,29.88,North,32767,0.0,0.0,89,0.00,,,0.00,Wunderground v.1.13,2013-09-09 09:02:00,
2013-09-09 05:07:00,70.9,67.5,29.88,North,32767,0.0,0.0,89,0.00,,,0.00,Wunderground v.1.13,2013-09-09 09:07:00,
2013-09-09 05:12:00,71.1,67.7,29.88,North,32767,0.0,0.0,89,0.00,,,0.00,Wunderground v.1.13,2013-09-09 09:12:00,
2013-09-09 05:15:00,71.1,67.7,29.88,North,-999,0.0,0.0,89,0.00,,,-99.99,WeatherLink 6.0.2,2013-09-09 09:15:00,
2013-09-09 05:17:00,71.1,67.7,29.88,North,32767,0.0,0.0,89,0.00,,,0.00,Wunderground v.1.13,2013-09-09 09:17:00,
2013-09-09 05:20:00,71.1,67.7,29.88,North,-999,0.0,0.0,89,0.00,,,-99.99,WeatherLink 6.0.2,2013-09-09 09:20:00,
2013-09-09 05:23:00,71.1,67.7,29.88,North,32767,0.0,0.0,89,0.00,,,0.00,Wunderground v.1.13,2013-09-09 09:23:00,
2013-09-09 05:25:00,71.1,67.7,29.88,North,-999,0.0,0.0,89,0.00,,,-99.99,WeatherLink 6.0.2,2013-09-09 09:25:00,
2013-09-09 05:28:00,71.1,67.7,29.88,North,32767,0.0,0.0,89,0.00,,,0.00,Wunderground v.1.13,2013-09-09 09:28:00,
2013-09-09 05:30:00,71.1,67.7,29.89,North,-999,0.0,0.0,89,0.00,,,-99.99,WeatherLink 6.0.2,2013-09-09 09:30:00,
2013-09-09 05:33:00,71.1,67.7,29.89,North,32767,0.0,0.0,89,0.00,,,0.00,Wunderground v.1.13,2013-09-09 09:33:00,
2013-09-09 05:35:00,71.1,67.7,29.89,North,-999,0.0,0.0,89,0.00,,,-99.99,WeatherLink 6.0.2,2013-09-09 09:35:00,
2013-09-09 05:38:00,71.1,67.7,29.89,North,32767,0.0,0.0,89,0.00,,,0.00,Wunderground v.1.13,2013-09-09 09:38:00,
2013-09-09 05:40:00,71.1,67.7,29.89,North,-999,0.0,0.0,89,0.00,,,-99.99,WeatherLink 6.0.2,2013-09-09 09:40:00,
2013-09-09 05:43:00,71.1,67.7,29.89,North,32767,0.0,0.0,89,0.00,,,0.00,Wunderground v.1.13,2013-09-09 09:43:00,
2013-09-09 05:45:00,71.1,67.7,29.89,North,-999,0.0,0.0,89,0.00,,,-99.99,WeatherLink 6.0.2,2013-09-09 09:45:00,
2013-09-09 05:48:00,71.1,67.7,29.89,North,32767,0.0,0.0,89,0.00,,,0.00,Wunderground v.1.13,2013-09-09 09:48:00,
2013-09-09 05:50:00,71.1,67.7,29.89,North,-999,0.0,0.0,89,0.00,,,-99.99,WeatherLink 6.0.2,2013-09-09 09:50:00,
2013-09-09 05:53:00,71.1,67.7,29.89,North,32767,0.0,0.0,89,0.00,,,0.00,Wunderground v.1.13,2013-09-09 09:53:00,
2013-09-09 05:55:00,71.1,68.0,29.89,North,-999,0.0,0.0,90,0.00,,,-99.99,WeatherLink 6.0.2,2013-09-09 09:55:00,
2013-09-09 05:58:00,71.1,68.0,29.89,North,32767,0.0,0.0,90,0.00,,,0.00,Wunderground v.1.13,2013-09-09 09:58:00,
2013-09-09 06:03:00,71.3,68.2,29.90,North,32767,0.0,0.0,90,0.00,,,0.00,Wunderground v.1.13,2013-09-09 10:03:00,
2013-09-09 06:08:00,71.3,68.2,29.90,North,-999,0.0,0.0,90,0.00,,,-99.99,WeatherLink 6.0.2,2013-09-09 10:08:00,
2013-09-09 06:13:00,71.3,68.2,29.90,North,-999,0.0,0.0,90,0.00,,,-99.99,WeatherLink 6.0.2,2013-09-09 10:13:00,
2013-09-09 06:18:00,71.5,68.4,29.90,North,-999,0.0,0.0,90,0.00,,,-99.99,WeatherLink 6.0.2,2013-09-09 10:18:00,
2013-09-09 06:23:00,71.5,68.4,29.90,North,32767,0.0,0.0,90,0.00,,,0.00,Wunderground v.1.13,2013-09-09 10:23:00,
2013-09-09 06:28:00,71.6,68.5,29.90,North,32767,0.0,0.0,90,0.00,,,0.00,Wunderground v.1.13,2013-09-09 10:28:00,
2013-09-09 06:33:00,71.5,68.4,29.90,North,32767,0.0,0.0,90,0.00,,,0.00,Wunderground v.1.13,2013-09-09 10:33:00,
2013-09-09 06:38:00,71.5,68.4,29.90,North,32767,0.0,0.0,90,0.00,,,0.00,Wunderground v.1.13,2013-09-09 10:38:00,
2013-09-09 06:44:00,71.5,68.4,29.90,North,32767,0.0,0.0,90,0.00,,,0.00,Wunderground v.1.13,2013-09-09 10:44:00,
2013-09-09 06:49:00,71.5,68.4,29.91,North,32767,0.0,0.0,90,0.00,,,0.00,Wunderground v.1.13,2013-09-09 10:49:00,
2013-09-09 06:54:00,71.5,68.4,29.91,North,32767,0.0,0.0,90,0.00,,,0.00,Wunderground v.1.13,2013-09-09 10:54:00,
2013-09-09 06:59:00,71.5,68.4,29.91,North,32767,0.0,0.0,90,0.00,,,0.00,Wunderground v.1.13,2013-09-09 10:59:00,
2013-09-09 07:04:00,71.3,68.2,29.91,North,32767,0.0,0.0,90,0.00,,,0.00,Wunderground v.1.13,2013-09-09 11:04:00,
2013-09-09 07:09:00,71.3,68.2,29.91,North,32767,0.0,0.0,90,0.00,,,0.00,Wunderground v.1.13,2013-09-09 11:09:00,
2013-09-09 07:14:00,71.3,68.2,29.91,North,32767,0.0,0.0,90,0.00,,,0.00,Wunderground v.1.13,2013-09-09 11:14:00,
2013-09-09 07:19:00,71.3,68.2,29.91,North,32767,0.0,0.0,90,0.00,,,0.00,Wunderground v.1.13,2013-09-09 11:19:00,
2013-09-09 07:24:00,71.3,68.5,29.91,North,-999,0.0,0.0,91,0.00,,,-99.99,WeatherLink 6.0.2,2013-09-09 11:24:00,
2013-09-09 07:29:00,71.3,68.5,29.91,North,-999,0.0,0.0,91,0.00,,,-99.99,WeatherLink 6.0.2,2013-09-09 11:29:00,
2013-09-09 07:30:00,71.3,68.5,29.91,North,-999,0.0,0.0,91,0.00,,,-99.99,WeatherLink 6.0.2,2013-09-09 11:30:00,
2013-09-09 07:34:00,71.3,68.5,29.91,North,32767,0.0,0.0,91,0.00,,,0.00,Wunderground v.1.13,2013-09-09 11:34:00,
2013-09-09 07:35:00,71.5,68.7,29.91,North,-999,0.0,0.0,91,0.00,,,-99.99,WeatherLink 6.0.2,2013-09-09 11:35:00,
2013-09-09 07:39:00,71.5,68.7,29.91,North,32767,0.0,0.0,91,0.00,,,0.00,Wunderground v.1.13,2013-09-09 11:39:00,
2013-09-09 07:40:00,71.6,68.8,29.91,North,-999,0.0,0.0,91,0.00,,,-99.99,WeatherLink 6.0.2,2013-09-09 11:40:00,
2013-09-09 07:44:00,71.6,68.8,29.91,North,32767,0.0,0.0,91,0.00,,,0.00,Wunderground v.1.13,2013-09-09 11:44:00,
2013-09-09 07:45:00,71.6,68.8,29.91,North,-999,0.0,0.0,91,0.00,,,-99.99,WeatherLink 6.0.2,2013-09-09 11:45:00,
2013-09-09 07:49:00,71.8,69.0,29.91,North,32767,0.0,0.0,91,0.00,,,0.00,Wunderground v.1.13,2013-09-09 11:49:00,
2013-09-09 07:50:00,71.8,69.0,29.91,North,-999,0.0,0.0,91,0.00,,,-99.99,WeatherLink 6.0.2,2013-09-09 11:50:00,
2013-09-09 07:54:00,72.1,69.3,29.91,North,32767,0.0,0.0,91,0.00,,,0.00,Wunderground v.1.13,2013-09-09 11:54:00,
2013-09-09 07:55:00,72.1,69.3,29.91,North,-999,0.0,0.0,91,0.00,,,-99.99,WeatherLink 6.0.2,2013-09-09 11:55:00,
2013-09-09 07:59:00,72.3,69.5,29.91,North,32767,0.0,0.0,91,0.00,,,0.00,Wunderground v.1.13,2013-09-09 11:59:00,
2013-09-09 08:00:00,72.5,70.0,29.92,North,-999,0.0,0.0,92,0.00,,,-99.99,WeatherLink 6.0.2,2013-09-09 12:00:00,
2013-09-09 08:04:00,72.8,70.3,29.92,North,32767,0.0,0.0,92,0.00,,,0.00,Wunderground v.1.13,2013-09-09 12:04:00,
2013-09-09 08:05:00,72.8,70.3,29.92,North,-999,0.0,0.0,92,0.00,,,-99.99,WeatherLink 6.0.2,2013-09-09 12:05:00,
2013-09-09 08:09:00,73.2,70.7,29.92,North,32767,0.0,0.0,92,0.00,,,0.00,Wunderground v.1.13,2013-09-09 12:09:00,
2013-09-09 08:10:00,73.2,70.7,29.92,North,-999,0.0,0.0,92,0.00,,,-99.99,WeatherLink 6.0.2,2013-09-09 12:10:00,
2013-09-09 08:14:00,73.5,71.0,29.92,North,32767,0.0,0.0,92,0.00,,,0.00,Wunderground v.1.13,2013-09-09 12:14:00,
2013-09-09 08:15:00,73.7,71.2,29.93,North,-999,0.0,0.0,92,0.00,,,-99.99,WeatherLink 6.0.2,2013-09-09 12:15:00,
2013-09-09 08:20:00,74.0,71.5,29.93,North,32767,0.0,0.0,92,0.00,,,0.00,Wunderground v.1.13,2013-09-09 12:20:00,
2013-09-09 08:25:00,74.4,71.9,29.93,North,32767,0.0,0.0,92,0.00,,,0.00,Wunderground v.1.13,2013-09-09 12:25:00,
2013-09-09 08:30:00,74.7,72.2,29.93,North,32767,0.0,0.0,92,0.00,,,0.00,Wunderground v.1.13,2013-09-09 12:30:00,
2013-09-09 08:35:00,75.1,72.3,29.93,North,32767,0.0,0.0,91,0.00,,,0.00,Wunderground v.1.13,2013-09-09 12:35:00,
2013-09-09 08:40:00,75.4,72.6,29.93,North,32767,0.0,0.0,91,0.00,,,0.00,Wunderground v.1.13,2013-09-09 12:40:00,
2013-09-09 08:45:00,76.3,73.1,29.94,North,32767,0.0,0.0,90,0.00,,,0.00,Wunderground v.1.13,2013-09-09 12:45:00,
2013-09-09 08:50:00,76.7,73.2,29.94,North,32767,0.0,0.0,89,0.00,,,0.00,Wunderground v.1.13,2013-09-09 12:50:00,
2013-09-09 08:55:00,77.2,73.0,29.94,North,32767,0.0,0.0,87,0.00,,,0.00,Wunderground v.1.13,2013-09-09 12:55:00,
2013-09-09 09:01:00,77.6,73.1,29.93,North,32767,0.0,0.0,86,0.00,,,0.00,Wunderground v.1.13,2013-09-09 13:01:00,
2013-09-09 09:05:00,77.9,72.7,29.93,North,32767,0.0,0.0,84,0.00,,,0.00,Wunderground v.1.13,2013-09-09 13:05:00,
2013-09-09 09:11:00,78.6,73.0,29.93,North,32767,0.0,0.0,83,0.00,,,0.00,Wunderground v.1.13,2013-09-09 13:11:00,
2013-09-09 09:16:00,79.2,73.2,29.93,North,32767,0.0,0.0,82,0.00,,,0.00,Wunderground v.1.13,2013-09-09 13:16:00,
2013-09-09 09:21:00,79.4,73.1,29.93,North,32767,0.0,0.0,81,0.00,,,0.00,Wunderground v.1.13,2013-09-09 13:21:00,
2013-09-09 09:26:00,79.9,73.2,29.93,North,32767,0.0,0.0,80,0.00,,,0.00,Wunderground v.1.13,2013-09-09 13:26:00,
2013-09-09 09:30:00,80.7,74.3,29.94,North,-999,0.0,0.0,81,0.00,,,-99.99,WeatherLink 6.0.2,2013-09-09 13:30:00,
2013-09-09 09:31:00,80.7,74.3,29.94,North,32767,0.0,0.0,81,0.00,,,0.00,Wunderground v.1.13,2013-09-09 13:31:00,
2013-09-09 09:35:00,80.7,73.2,29.94,North,-999,0.0,0.0,78,0.00,,,-99.99,WeatherLink 6.0.2,2013-09-09 13:35:00,
2013-09-09 09:36:00,80.7,73.2,29.94,North,32767,0.0,0.0,78,0.00,,,0.00,Wunderground v.1.13,2013-09-09 13:36:00,
2013-09-09 09:40:00,81.2,73.3,29.94,North,-999,0.0,0.0,77,0.00,,,-99.99,WeatherLink 6.0.2,2013-09-09 13:40:00,
2013-09-09 09:41:00,81.2,73.3,29.94,North,32767,0.0,0.0,77,0.00,,,0.00,Wunderground v.1.13,2013-09-09 13:41:00,
2013-09-09 09:45:00,81.2,73.3,29.94,North,-999,0.0,0.0,77,0.00,,,-99.99,WeatherLink 6.0.2,2013-09-09 13:45:00,
2013-09-09 09:46:00,81.2,72.9,29.94,North,32767,0.0,0.0,76,0.00,,,0.00,Wunderground v.1.13,2013-09-09 13:46:00,
2013-09-09 09:50:00,81.8,73.5,29.94,North,-999,0.0,0.0,76,0.00,,,-99.99,WeatherLink 6.0.2,2013-09-09 13:50:00,
2013-09-09 09:51:00,81.8,73.1,29.94,North,32767,0.0,0.0,75,0.00,,,0.00,Wunderground v.1.13,2013-09-09 13:51:00,
2013-09-09 09:55:00,82.2,73.9,29.94,North,-999,0.0,0.0,76,0.00,,,-99.99,WeatherLink 6.0.2,2013-09-09 13:55:00,
2013-09-09 09:56:00,82.2,73.9,29.94,North,32767,0.0,0.0,76,0.00,,,0.00,Wunderground v.1.13,2013-09-09 13:56:00,
2013-09-09 10:00:00,82.4,73.7,29.94,North,-999,0.0,0.0,75,0.00,,,-99.99,WeatherLink 6.0.2,2013-09-09 14:00:00,
2013-09-09 10:01:00,82.6,73.9,29.94,North,32767,0.0,0.0,75,0.00,,,0.00,Wunderground v.1.13,2013-09-09 14:01:00,
2013-09-09 10:05:00,82.8,73.7,29.94,North,-999,0.0,0.0,74,0.00,,,-99.99,WeatherLink 6.0.2,2013-09-09 14:05:00,
2013-09-09 10:06:00,83.0,73.9,29.94,North,32767,0.0,0.0,74,0.00,,,0.00,Wunderground v.1.13,2013-09-09 14:06:00,
2013-09-09 10:10:00,82.6,73.1,29.94,North,-999,0.0,0.0,73,0.00,,,-99.99,WeatherLink 6.0.2,2013-09-09 14:10:00,
2013-09-09 10:11:00,82.8,73.7,29.94,North,32767,0.0,0.0,74,0.00,,,0.00,Wunderground v.1.13,2013-09-09 14:11:00,
2013-09-09 10:15:00,83.4,73.8,29.95,North,-999,0.0,0.0,73,0.00,,,-99.99,WeatherLink 6.0.2,2013-09-09 14:15:00,
2013-09-09 10:16:00,83.4,73.8,29.95,North,32767,0.0,0.0,73,0.00,,,0.00,Wunderground v.1.13,2013-09-09 14:16:00,
2013-09-09 10:20:00,83.8,73.4,29.95,North,-999,0.0,0.0,71,0.00,,,-99.99,WeatherLink 6.0.2,2013-09-09 14:20:00,
2013-09-09 10:21:00,83.8,73.8,29.95,North,32767,0.0,0.0,72,0.00,,,0.00,Wunderground v.1.13,2013-09-09 14:21:00,
2013-09-09 10:25:00,84.3,73.9,29.95,North,-999,0.0,0.0,71,0.00,,,-99.99,WeatherLink 6.0.2,2013-09-09 14:25:00,
2013-09-09 10:26:00,84.3,73.4,29.95,North,32767,0.0,0.0,70,0.00,,,0.00,Wunderground v.1.13,2013-09-09 14:26:00,
2013-09-09 10:30:00,84.7,73.8,29.95,North,-999,0.0,0.0,70,0.00,,,-99.99,WeatherLink 6.0.2,2013-09-09 14:30:00,
2013-09-09 10:31:00,84.5,72.3,29.95,North,32767,0.0,0.0,67,0.00,,,0.00,Wunderground v.1.13,2013-09-09 14:31:00,
2013-09-09 10:36:00,83.8,73.0,29.95,North,32767,0.0,0.0,70,0.00,,,0.00,Wunderground v.1.13,2013-09-09 14:36:00,
2013-09-09 10:41:00,84.0,72.3,29.95,North,32767,0.0,0.0,68,0.00,,,0.00,Wunderground v.1.13,2013-09-09 14:41:00,
2013-09-09 10:46:00,84.0,72.7,29.96,North,32767,0.0,0.0,69,0.00,,,0.00,Wunderground v.1.13,2013-09-09 14:46:00,
2013-09-09 10:52:00,84.5,73.6,29.96,North,32767,0.0,0.0,70,0.00,,,0.00,Wunderground v.1.13,2013-09-09 14:52:00,
2013-09-09 10:57:00,84.7,71.6,29.96,North,32767,0.0,0.0,65,0.00,,,0.00,Wunderground v.1.13,2013-09-09 14:57:00,
2013-09-09 11:02:00,85.3,72.2,29.96,North,32767,0.0,0.0,65,0.00,,,0.00,Wunderground v.1.13,2013-09-09 15:02:00,
2013-09-09 11:07:00,85.9,72.8,29.96,North,32767,0.0,0.0,65,0.00,,,0.00,Wunderground v.1.13,2013-09-09 15:07:00,
2013-09-09 11:12:00,85.5,71.5,29.96,North,32767,0.0,0.0,63,0.00,,,0.00,Wunderground v.1.13,2013-09-09 15:12:00,
2013-09-09 11:17:00,85.7,71.7,29.96,North,32767,0.0,0.0,63,0.00,,,0.00,Wunderground v.1.13,2013-09-09 15:17:00,
2013-09-09 11:22:00,85.5,71.5,29.96,North,32767,0.0,0.0,63,0.00,,,0.00,Wunderground v.1.13,2013-09-09 15:22:00,
2013-09-09 11:27:00,85.9,72.8,29.96,North,32767,0.0,0.0,65,0.00,,,0.00,Wunderground v.1.13,2013-09-09 15:27:00,
2013-09-09 11:32:00,85.7,72.1,29.96,North,32767,0.0,0.0,64,0.00,,,0.00,Wunderground v.1.13,2013-09-09 15:32:00,
2013-09-09 11:37:00,85.9,72.8,29.96,North,32767,0.0,0.0,65,0.00,,,0.00,Wunderground v.1.13,2013-09-09 15:37:00,
2013-09-09 11:42:00,87.0,71.9,29.96,North,32767,0.0,0.0,61,0.00,,,0.00,Wunderground v.1.13,2013-09-09 15:42:00,
2013-09-09 11:47:00,86.5,72.4,29.96,North,32767,0.0,0.0,63,0.00,,,0.00,Wunderground v.1.13,2013-09-09 15:47:00,
2013-09-09 11:52:00,86.5,71.5,29.96,North,32767,0.0,0.0,61,0.00,,,0.00,Wunderground v.1.13,2013-09-09 15:52:00,
2013-09-09 11:57:00,86.3,71.3,29.96,North,32767,0.0,0.0,61,0.00,,,0.00,Wunderground v.1.13,2013-09-09 15:57:00,
2013-09-09 12:00:00,86.7,73.1,29.95,North,-999,0.0,0.0,64,0.00,,,-99.99,WeatherLink 6.0.2,2013-09-09 16:00:00,
2013-09-09 12:02:00,86.7,71.6,29.95,North,32767,0.0,0.0,61,0.00,,,0.00,Wunderground v.1.13,2013-09-09 16:02:00,
2013-09-09 12:05:00,87.6,73.0,29.95,North,-999,0.0,0.0,62,0.00,,,-99.99,WeatherLink 6.0.2,2013-09-09 16:05:00,
2013-09-09 12:07:00,87.2,70.6,29.95,North,32767,0.0,0.0,58,0.00,,,0.00,Wunderground v.1.13,2013-09-09 16:07:00,
2013-09-09 12:10:00,87.4,73.3,29.95,North,-999,0.0,0.0,63,0.00,,,-99.99,WeatherLink 6.0.2,2013-09-09 16:10:00,
2013-09-09 12:12:00,87.4,70.3,29.95,North,32767,0.0,0.0,57,0.00,,,0.00,Wunderground v.1.13,2013-09-09 16:12:00,
2013-09-09 12:15:00,87.4,70.3,29.95,North,-999,0.0,0.0,57,0.00,,,-99.99,WeatherLink 6.0.2,2013-09-09 16:15:00,
2013-09-09 12:17:00,87.8,72.2,29.95,North,32767,0.0,0.0,60,0.00,,,0.00,Wunderground v.1.13,2013-09-09 16:17:00,
2013-09-09 12:20:00,88.0,71.9,29.95,North,-999,0.0,0.0,59,0.00,,,-99.99,WeatherLink 6.0.2,2013-09-09 16:20:00,
2013-09-09 12:22:00,88.2,71.6,29.95,North,32767,0.0,0.0,58,0.00,,,0.00,Wunderground v.1.13,2013-09-09 16:22:00,
2013-09-09 12:25:00,88.2,71.0,29.95,North,-999,0.0,0.0,57,0.00,,,-99.99,WeatherLink 6.0.2,2013-09-09 16:25:00,
2013-09-09 12:27:00,87.8,71.2,29.95,North,32767,0.0,0.0,58,0.00,,,0.00,Wunderground v.1.13,2013-09-09 16:27:00,
2013-09-09 12:30:00,87.8,70.7,29.95,North,-999,0.0,0.0,57,0.00,,,-99.99,WeatherLink 6.0.2,2013-09-09 16:30:00,
2013-09-09 12:32:00,87.6,71.5,29.95,North,32767,0.0,0.0,59,0.00,,,0.00,Wunderground v.1.13,2013-09-09 16:32:00,
2013-09-09 12:35:00,88.0,72.9,29.95,North,-999,0.0,0.0,61,0.00,,,-99.99,WeatherLink 6.0.2,2013-09-09 16:35:00,
2013-09-09 12:37:00,87.8,71.7,29.95,North,32767,0.0,0.0,59,0.00,,,0.00,Wunderground v.1.13,2013-09-09 16:37:00,
2013-09-09 12:40:00,87.4,70.8,29.95,North,-999,0.0,0.0,58,0.00,,,-99.99,WeatherLink 6.0.2,2013-09-09 16:40:00,
2013-09-09 12:42:00,87.2,71.6,29.95,North,32767,0.0,0.0,60,0.00,,,0.00,Wunderground v.1.13,2013-09-09 16:42:00,
2013-09-09 12:45:00,88.0,72.9,29.94,North,-999,0.0,0.0,61,0.00,,,-99.99,WeatherLink 6.0.2,2013-09-09 16:45:00,
2013-09-09 12:47:00,88.2,72.1,29.95,North,32767,0.0,0.0,59,0.00,,,0.00,Wunderground v.1.13,2013-09-09 16:47:00,
2013-09-09 12:52:00,88.2,71.6,29.95,North,32767,0.0,0.0,58,0.00,,,0.00,Wunderground v.1.13,2013-09-09 16:52:00,
2013-09-09 12:57:00,88.2,70.5,29.95,North,32767,0.0,0.0,56,0.00,,,0.00,Wunderground v.1.13,2013-09-09 16:57:00,
2013-09-09 13:02:00,88.4,71.2,29.94,North,32767,0.0,0.0,57,0.00,,,0.00,Wunderground v.1.13,2013-09-09 17:02:00,
2013-09-09 13:07:00,88.2,70.5,29.94,North,32767,0.0,0.0,56,0.00,,,0.00,Wunderground v.1.13,2013-09-09 17:07:00,
2013-09-09 13:12:00,88.4,69.6,29.94,North,32767,0.0,0.0,54,0.00,,,0.00,Wunderground v.1.13,2013-09-09 17:12:00,
2013-09-09 13:17:00,88.6,70.9,29.94,North,32767,0.0,0.0,56,0.00,,,0.00,Wunderground v.1.13,2013-09-09 17:17:00,
2013-09-09 13:22:00,88.6,71.9,29.94,North,32767,0.0,0.0,58,0.00,,,0.00,Wunderground v.1.13,2013-09-09 17:22:00,
2013-09-09 13:27:00,89.0,69.6,29.94,North,32767,0.0,0.0,53,0.00,,,0.00,Wunderground v.1.13,2013-09-09 17:27:00,
2013-09-09 13:32:00,89.0,70.2,29.94,North,32767,0.0,0.0,54,0.00,,,0.00,Wunderground v.1.13,2013-09-09 17:32:00,
2013-09-09 13:37:00,89.9,72.1,29.94,North,32767,0.0,0.0,56,0.00,,,0.00,Wunderground v.1.13,2013-09-09 17:37:00,
2013-09-09 13:42:00,89.9,70.5,29.94,North,32767,0.0,0.0,53,0.00,,,0.00,Wunderground v.1.13,2013-09-09 17:42:00,
2013-09-09 13:47:00,89.3,71.0,29.93,North,32767,0.0,0.0,55,0.00,,,0.00,Wunderground v.1.13,2013-09-09 17:47:00,
2013-09-09 13:52:00,88.2,70.0,29.93,North,32767,0.0,0.0,55,0.00,,,0.00,Wunderground v.1.13,2013-09-09 17:52:00,
2013-09-09 13:57:00,88.8,68.9,29.93,North,32767,0.0,0.0,52,0.00,,,0.00,Wunderground v.1.13,2013-09-09 17:57:00,
2013-09-09 14:02:00,89.5,70.1,29.93,North,32767,0.0,0.0,53,0.00,,,0.00,Wunderground v.1.13,2013-09-09 18:02:00,
2013-09-09 14:07:00,90.5,70.5,29.93,North,32767,0.0,0.0,52,0.00,,,0.00,Wunderground v.1.13,2013-09-09 18:07:00,
2013-09-09 14:12:00,90.3,69.7,29.93,North,32767,0.0,0.0,51,0.00,,,0.00,Wunderground v.1.13,2013-09-09 18:12:00,
2013-09-09 14:17:00,89.9,68.2,29.93,North,32767,0.0,0.0,49,0.00,,,0.00,Wunderground v.1.13,2013-09-09 18:17:00,
2013-09-09 14:22:00,90.1,71.2,29.93,North,32767,0.0,0.0,54,0.00,,,0.00,Wunderground v.1.13,2013-09-09 18:22:00,
2013-09-09 14:28:00,89.3,65.8,29.93,North,32767,0.0,0.0,46,0.00,,,0.00,Wunderground v.1.13,2013-09-09 18:28:00,
2013-09-09 14:33:00,89.9,70.5,29.92,North,32767,0.0,0.0,53,0.00,,,0.00,Wunderground v.1.13,2013-09-09 18:33:00,
2013-09-09 14:38:00,90.3,71.4,29.92,North,32767,0.0,0.0,54,0.00,,,0.00,Wunderground v.1.13,2013-09-09 18:38:00,
2013-09-09 14:42:00,89.5,69.0,29.92,North,32767,0.0,0.0,51,0.00,,,0.00,Wunderground v.1.13,2013-09-09 18:42:00,
2013-09-09 14:45:00,89.7,70.8,29.91,North,-999,0.0,0.0,54,0.00,,,-99.99,WeatherLink 6.0.2,2013-09-09 18:45:00,
2013-09-09 14:47:00,89.5,69.5,29.91,North,32767,0.0,0.0,52,0.00,,,0.00,Wunderground v.1.13,2013-09-09 18:47:00,
2013-09-09 14:50:00,90.3,69.7,29.91,North,-999,0.0,0.0,51,0.00,,,-99.99,WeatherLink 6.0.2,2013-09-09 18:50:00,
2013-09-09 14:53:00,90.7,69.5,29.91,North,32767,0.0,0.0,50,0.00,,,0.00,Wunderground v.1.13,2013-09-09 18:53:00,
2013-09-09 14:58:00,89.7,68.0,29.91,North,32767,0.0,0.0,49,0.00,,,0.00,Wunderground v.1.13,2013-09-09 18:58:00,
2013-09-09 15:03:00,90.7,69.5,29.91,North,-999,0.0,0.0,50,0.00,,,-99.99,WeatherLink 6.0.2,2013-09-09 19:03:00,
2013-09-09 15:05:00,88.8,70.0,29.91,North,-999,0.0,0.0,54,0.00,,,-99.99,WeatherLink 6.0.2,2013-09-09 19:05:00,
2013-09-09 15:08:00,89.5,69.5,29.91,North,32767,0.0,0.0,52,0.00,,,0.00,Wunderground v.1.13,2013-09-09 19:08:00,
2013-09-09 15:10:00,89.7,69.7,29.91,North,-999,0.0,0.0,52,0.00,,,-99.99,WeatherLink 6.0.2,2013-09-09 19:10:00,
2013-09-09 15:13:00,90.1,68.4,29.91,North,32767,0.0,0.0,49,0.00,,,0.00,Wunderground v.1.13,2013-09-09 19:13:00,
2013-09-09 15:18:00,90.7,68.9,29.91,North,32767,0.0,0.0,49,0.00,,,0.00,Wunderground v.1.13,2013-09-09 19:18:00,
2013-09-09 15:23:00,90.7,69.5,29.91,North,-999,0.0,0.0,50,0.00,,,-99.99,WeatherLink 6.0.2,2013-09-09 19:23:00,
2013-09-09 15:28:00,91.2,68.2,29.91,North,32767,0.0,0.0,47,0.00,,,0.00,Wunderground v.1.13,2013-09-09 19:28:00,
2013-09-09 15:33:00,91.2,66.2,29.91,North,-999,0.0,0.0,44,0.00,,,-99.99,WeatherLink 6.0.2,2013-09-09 19:33:00,
2013-09-09 15:38:00,90.5,66.3,29.91,North,-999,0.0,0.0,45,0.00,,,-99.99,WeatherLink 6.0.2,2013-09-09 19:38:00,
2013-09-09 15:43:00,90.7,66.4,29.91,North,32767,0.0,0.0,45,0.00,,,0.00,Wunderground v.1.13,2013-09-09 19:43:00,
2013-09-09 15:48:00,90.7,67.1,29.90,North,32767,0.0,0.0,46,0.00,,,0.00,Wunderground v.1.13,2013-09-09 19:48:00,
2013-09-09 15:54:00,91.4,68.3,29.90,North,-999,0.0,0.0,47,0.00,,,-99.99,WeatherLink 6.0.2,2013-09-09 19:54:00,
2013-09-09 15:59:00,91.4,67.7,29.90,North,32767,0.0,0.0,46,0.00,,,0.00,Wunderground v.1.13,2013-09-09 19:59:00,
2013-09-09 16:04:00,90.1,65.2,29.90,North,32767,0.0,0.0,44,0.00,,,0.00,Wunderground v.1.13,2013-09-09 20:04:00,
2013-09-09 16:09:00,91.0,65.4,29.90,North,32767,0.0,0.0,43,0.00,,,0.00,Wunderground v.1.13,2013-09-09 20:09:00,
2013-09-09 16:14:00,91.2,65.6,29.90,North,32767,0.0,0.0,43,0.00,,,0.00,Wunderground v.1.13,2013-09-09 20:14:00,
2013-09-09 16:19:00,91.2,63.5,29.90,North,32767,0.0,0.0,40,0.00,,,0.00,Wunderground v.1.13,2013-09-09 20:19:00,
2013-09-09 16:24:00,91.6,66.6,29.90,North,32767,0.0,0.0,44,0.00,,,0.00,Wunderground v.1.13,2013-09-09 20:24:00,
2013-09-09 16:29:00,91.2,63.5,29.90,North,32767,0.0,0.0,40,0.00,,,0.00,Wunderground v.1.13,2013-09-09 20:29:00,
2013-09-09 16:34:00,91.4,66.4,29.90,North,32767,0.0,0.0,44,0.00,,,0.00,Wunderground v.1.13,2013-09-09 20:34:00,
2013-09-09 16:39:00,91.2,62.8,29.90,North,32767,0.0,0.0,39,0.00,,,0.00,Wunderground v.1.13,2013-09-09 20:39:00,
2013-09-09 16:44:00,91.4,66.4,29.90,North,32767,0.0,0.0,44,0.00,,,0.00,Wunderground v.1.13,2013-09-09 20:44:00,
2013-09-09 16:49:00,91.2,64.2,29.90,North,-999,0.0,0.0,41,0.00,,,-99.99,WeatherLink 6.0.2,2013-09-09 20:49:00,
2013-09-09 16:54:00,90.7,61.6,29.90,North,-999,0.0,0.0,38,0.00,,,-99.99,WeatherLink 6.0.2,2013-09-09 20:54:00,
2013-09-09 16:55:00,91.2,63.5,29.90,North,-999,0.0,0.0,40,0.00,,,-99.99,WeatherLink 6.0.2,2013-09-09 20:55:00,
2013-09-09 16:59:00,91.0,64.7,29.90,North,32767,0.0,0.0,42,0.00,,,0.00,Wunderground v.1.13,2013-09-09 20:59:00,
2013-09-09 17:00:00,91.0,66.1,29.89,North,-999,0.0,0.0,44,0.00,,,-99.99,WeatherLink 6.0.2,2013-09-09 21:00:00,
2013-09-09 17:04:00,91.2,67.5,29.89,North,32767,0.0,0.0,46,0.00,,,0.00,Wunderground v.1.13,2013-09-09 21:04:00,
2013-09-09 17:05:00,91.2,64.9,29.89,North,-999,0.0,0.0,42,0.00,,,-99.99,WeatherLink 6.0.2,2013-09-09 21:05:00,
2013-09-09 17:09:00,91.2,65.6,29.89,North,32767,0.0,0.0,43,0.00,,,0.00,Wunderground v.1.13,2013-09-09 21:09:00,
2013-09-09 17:10:00,91.2,64.9,29.89,North,-999,0.0,0.0,42,0.00,,,-99.99,WeatherLink 6.0.2,2013-09-09 21:10:00,
2013-09-09 17:14:00,90.7,63.1,29.89,North,32767,0.0,0.0,40,0.00,,,0.00,Wunderground v.1.13,2013-09-09 21:14:00,
2013-09-09 17:15:00,90.7,63.1,29.89,North,-999,0.0,0.0,40,0.00,,,-99.99,WeatherLink 6.0.2,2013-09-09 21:15:00,
2013-09-09 17:19:00,90.7,63.8,29.89,North,32767,0.0,0.0,41,0.00,,,0.00,Wunderground v.1.13,2013-09-09 21:19:00,
2013-09-09 17:20:00,90.7,63.1,29.89,North,-999,0.0,0.0,40,0.00,,,-99.99,WeatherLink 6.0.2,2013-09-09 21:20:00,
2013-09-09 17:24:00,90.5,62.9,29.89,North,32767,0.0,0.0,40,0.00,,,0.00,Wunderground v.1.13,2013-09-09 21:24:00,
2013-09-09 17:25:00,90.3,61.2,29.89,North,-999,0.0,0.0,38,0.00,,,-99.99,WeatherLink 6.0.2,2013-09-09 21:25:00,
2013-09-09 17:30:00,90.3,63.4,29.89,North,32767,0.0,0.0,41,0.00,,,0.00,Wunderground v.1.13,2013-09-09 21:30:00,
2013-09-09 17:34:00,90.3,62.7,29.89,North,32767,0.0,0.0,40,0.00,,,0.00,Wunderground v.1.13,2013-09-09 21:34:00,
2013-09-09 17:35:00,90.5,64.3,29.89,North,-999,0.0,0.0,42,0.00,,,-99.99,WeatherLink 6.0.2,2013-09-09 21:35:00,
2013-09-09 17:40:00,90.5,63.6,29.89,North,32767,0.0,0.0,41,0.00,,,0.00,Wunderground v.1.13,2013-09-09 21:40:00,
2013-09-09 17:45:00,90.3,63.4,29.89,North,32767,0.0,0.0,41,0.00,,,0.00,Wunderground v.1.13,2013-09-09 21:45:00,
2013-09-09 17:50:00,90.1,63.9,29.89,North,32767,0.0,0.0,42,0.00,,,0.00,Wunderground v.1.13,2013-09-09 21:50:00,
2013-09-09 17:55:00,90.1,63.9,29.89,North,32767,0.0,0.0,42,0.00,,,0.00,Wunderground v.1.13,2013-09-09 21:55:00,
2013-09-09 18:00:00,90.1,63.9,29.89,North,32767,0.0,0.0,42,0.00,,,0.00,Wunderground v.1.13,2013-09-09 22:00:00,
2013-09-09 18:05:00,89.7,64.2,29.89,North,32767,0.0,0.0,43,0.00,,,0.00,Wunderground v.1.13,2013-09-09 22:05:00,
2013-09-09 18:10:00,89.0,64.9,29.89,North,32767,0.0,0.0,45,0.00,,,0.00,Wunderground v.1.13,2013-09-09 22:10:00,
2013-09-09 18:15:00,89.0,65.5,29.89,North,32767,0.0,0.0,46,0.00,,,0.00,Wunderground v.1.13,2013-09-09 22:15:00,
2013-09-09 18:20:00,88.8,66.6,29.89,North,32767,0.0,0.0,48,0.00,,,0.00,Wunderground v.1.13,2013-09-09 22:20:00,
2013-09-09 18:25:00,88.8,66.0,29.89,North,32767,0.0,0.0,47,0.00,,,0.00,Wunderground v.1.13,2013-09-09 22:25:00,
2013-09-09 18:30:00,88.4,65.0,29.89,North,32767,0.0,0.0,46,0.00,,,0.00,Wunderground v.1.13,2013-09-09 22:30:00,
2013-09-09 18:36:00,88.4,65.0,29.89,North,32767,0.0,0.0,46,0.00,,,0.00,Wunderground v.1.13,2013-09-09 22:36:00,
2013-09-09 18:41:00,88.0,65.2,29.89,North,32767,0.0,0.0,47,0.00,,,0.00,Wunderground v.1.13,2013-09-09 22:41:00,
2013-09-09 18:46:00,87.8,65.1,29.89,North,32767,0.0,0.0,47,0.00,,,0.00,Wunderground v.1.13,2013-09-09 22:46:00,
2013-09-09 18:51:00,88.0,65.2,29.89,North,32767,0.0,0.0,47,0.00,,,0.00,Wunderground v.1.13,2013-09-09 22:51:00,
2013-09-09 18:55:00,88.0,65.2,29.89,North,-999,0.0,0.0,47,0.00,,,-99.99,WeatherLink 6.0.2,2013-09-09 22:55:00,
2013-09-09 18:56:00,88.0,65.2,29.89,North,32767,0.0,0.0,47,0.00,,,0.00,Wunderground v.1.13,2013-09-09 22:56:00,
2013-09-09 19:01:00,87.8,65.7,29.90,North,32767,0.0,0.0,48,0.00,,,0.00,Wunderground v.1.13,2013-09-09 23:01:00,
2013-09-09 19:06:00,87.6,66.1,29.90,North,32767,0.0,0.0,49,0.00,,,0.00,Wunderground v.1.13,2013-09-09 23:06:00,
2013-09-09 19:12:00,87.4,66.5,29.90,North,32767,0.0,0.0,50,0.00,,,0.00,Wunderground v.1.13,2013-09-09 23:12:00,
2013-09-09 19:17:00,87.0,67.2,29.90,North,32767,0.0,0.0,52,0.00,,,0.00,Wunderground v.1.13,2013-09-09 23:17:00,
2013-09-09 19:22:00,86.5,67.9,29.90,North,32767,0.0,0.0,54,0.00,,,0.00,Wunderground v.1.13,2013-09-09 23:22:00,
2013-09-09 19:27:00,86.1,68.6,29.90,North,32767,0.0,0.0,56,0.00,,,0.00,Wunderground v.1.13,2013-09-09 23:27:00,
2013-09-09 19:32:00,85.7,68.2,29.91,North,32767,0.0,0.0,56,0.00,,,0.00,Wunderground v.1.13,2013-09-09 23:32:00,
2013-09-09 19:37:00,85.3,68.3,29.91,North,32767,0.0,0.0,57,0.00,,,0.00,Wunderground v.1.13,2013-09-09 23:37:00,
2013-09-09 19:42:00,84.9,68.5,29.91,North,32767,0.0,0.0,58,0.00,,,0.00,Wunderground v.1.13,2013-09-09 23:42:00,
2013-09-09 19:47:00,84.7,68.8,29.91,North,32767,0.0,0.0,59,0.00,,,0.00,Wunderground v.1.13,2013-09-09 23:47:00,
2013-09-09 19:52:00,84.3,68.9,29.91,North,32767,0.0,0.0,60,0.00,,,0.00,Wunderground v.1.13,2013-09-09 23:52:00,
2013-09-09 19:57:00,84.0,69.1,29.91,North,32767,0.0,0.0,61,0.00,,,0.00,Wunderground v.1.13,2013-09-09 23:57:00,
2013-09-09 20:02:00,83.8,69.4,29.92,North,32767,0.0,0.0,62,0.00,,,0.00,Wunderground v.1.13,2013-09-10 00:02:00,
2013-09-09 20:07:00,83.6,69.7,29.92,North,32767,0.0,0.0,63,0.00,,,0.00,Wunderground v.1.13,2013-09-10 00:07:00,
2013-09-09 20:12:00,83.4,69.5,29.92,North,32767,0.0,0.0,63,0.00,,,0.00,Wunderground v.1.13,2013-09-10 00:12:00,
2013-09-09 20:17:00,83.0,69.6,29.93,North,32767,0.0,0.0,64,0.00,,,0.00,Wunderground v.1.13,2013-09-10 00:17:00,
2013-09-09 20:22:00,82.8,69.4,29.93,North,32767,0.0,0.0,64,0.00,,,0.00,Wunderground v.1.13,2013-09-10 00:22:00,
2013-09-09 20:27:00,82.6,69.6,29.93,North,32767,0.0,0.0,65,0.00,,,0.00,Wunderground v.1.13,2013-09-10 00:27:00,
2013-09-09 20:32:00,82.4,69.9,29.93,North,32767,0.0,0.0,66,0.00,,,0.00,Wunderground v.1.13,2013-09-10 00:32:00,
2013-09-09 20:37:00,82.2,69.7,29.93,North,32767,0.0,0.0,66,0.00,,,0.00,Wunderground v.1.13,2013-09-10 00:37:00,
2013-09-09 20:42:00,82.0,70.0,29.93,North,32767,0.0,0.0,67,0.00,,,0.00,Wunderground v.1.13,2013-09-10 00:42:00,
2013-09-09 20:47:00,81.8,69.8,29.94,North,32767,0.0,0.0,67,0.00,,,0.00,Wunderground v.1.13,2013-09-10 00:47:00,
2013-09-09 20:50:00,81.6,70.0,29.94,North,-999,0.0,0.0,68,0.00,,,-99.99,WeatherLink 6.0.2,2013-09-10 00:50:00,
2013-09-09 20:52:00,81.6,70.0,29.94,North,32767,0.0,0.0,68,0.00,,,0.00,Wunderground v.1.13,2013-09-10 00:52:00,
2013-09-09 20:55:00,81.4,69.8,29.94,North,-999,0.0,0.0,68,0.00,,,-99.99,WeatherLink 6.0.2,2013-09-10 00:55:00,
2013-09-09 20:58:00,81.4,69.8,29.94,North,32767,0.0,0.0,68,0.00,,,0.00,Wunderground v.1.13,2013-09-10 00:58:00,
2013-09-09 21:00:00,81.2,70.1,29.94,North,-999,0.0,0.0,69,0.00,,,-99.99,WeatherLink 6.0.2,2013-09-10 01:00:00,
2013-09-09 21:03:00,81.2,70.1,29.94,North,32767,0.0,0.0,69,0.00,,,0.00,Wunderground v.1.13,2013-09-10 01:03:00,
2013-09-09 21:05:00,81.1,70.4,29.94,North,-999,0.0,0.0,70,0.00,,,-99.99,WeatherLink 6.0.2,2013-09-10 01:05:00,
2013-09-09 21:08:00,80.9,70.2,29.94,North,32767,0.0,0.0,70,0.00,,,0.00,Wunderground v.1.13,2013-09-10 01:08:00,
2013-09-09 21:13:00,80.7,70.0,29.94,North,32767,0.0,0.0,70,0.00,,,0.00,Wunderground v.1.13,2013-09-10 01:13:00,
2013-09-09 21:18:00,80.9,70.2,29.94,North,-999,0.0,0.0,70,0.00,,,-99.99,WeatherLink 6.0.2,2013-09-10 01:18:00,
2013-09-09 21:23:00,80.3,70.0,29.94,North,-999,0.0,0.0,71,0.00,,,-99.99,WeatherLink 6.0.2,2013-09-10 01:23:00,
2013-09-09 21:28:00,80.3,70.0,29.94,North,-999,0.0,0.0,71,0.00,,,-99.99,WeatherLink 6.0.2,2013-09-10 01:28:00,
2013-09-09 21:33:00,79.9,69.7,29.95,North,32767,0.0,0.0,71,0.00,,,0.00,Wunderground v.1.13,2013-09-10 01:33:00,
2013-09-09 21:38:00,79.8,70.0,29.95,North,32767,0.0,0.0,72,0.00,,,0.00,Wunderground v.1.13,2013-09-10 01:38:00,
2013-09-09 21:43:00,79.6,69.8,29.95,North,32767,0.0,0.0,72,0.00,,,0.00,Wunderground v.1.13,2013-09-10 01:43:00,
2013-09-09 21:48:00,79.4,70.0,29.96,North,32767,0.0,0.0,73,0.00,,,0.00,Wunderground v.1.13,2013-09-10 01:48:00,
2013-09-09 21:54:00,79.4,70.0,29.96,North,-999,0.0,0.0,73,0.00,,,-99.99,WeatherLink 6.0.2,2013-09-10 01:54:00,
2013-09-09 21:59:00,79.2,69.8,29.96,North,32767,0.0,0.0,73,0.00,,,0.00,Wunderground v.1.13,2013-09-10 01:59:00,
2013-09-09 22:04:00,79.2,70.2,29.96,North,32767,0.0,0.0,74,0.00,,,0.00,Wunderground v.1.13,2013-09-10 02:04:00,
2013-09-09 22:09:00,79.2,70.2,29.96,North,-999,0.0,0.0,74,0.00,,,-99.99,WeatherLink 6.0.2,2013-09-10 02:09:00,
2013-09-09 22:14:00,79.0,70.0,29.96,North,32767,0.0,0.0,74,0.00,,,0.00,Wunderground v.1.13,2013-09-10 02:14:00,
2013-09-09 22:19:00,78.8,70.2,29.97,North,32767,0.0,0.0,75,0.00,,,0.00,Wunderground v.1.13,2013-09-10 02:19:00,
2013-09-09 22:24:00,78.8,70.2,29.97,North,32767,0.0,0.0,75,0.00,,,0.00,Wunderground v.1.13,2013-09-10 02:24:00,
2013-09-09 22:29:00,78.6,70.0,29.97,North,32767,0.0,0.0,75,0.00,,,0.00,Wunderground v.1.13,2013-09-10 02:29:00,
2013-09-09 22:34:00,78.6,70.4,29.97,North,32767,0.0,0.0,76,0.00,,,0.00,Wunderground v.1.13,2013-09-10 02:34:00,
2013-09-09 22:39:00,78.6,70.4,29.97,North,32767,0.0,0.0,76,0.00,,,0.00,Wunderground v.1.13,2013-09-10 02:39:00,
2013-09-09 22:44:00,78.5,70.3,29.97,North,32767,0.0,0.0,76,0.00,,,0.00,Wunderground v.1.13,2013-09-10 02:44:00,
2013-09-09 22:49:00,78.5,70.7,29.97,North,32767,0.0,0.0,77,0.00,,,0.00,Wunderground v.1.13,2013-09-10 02:49:00,
2013-09-09 22:54:00,78.3,70.5,29.97,North,32767,0.0,0.0,77,0.00,,,0.00,Wunderground v.1.13,2013-09-10 02:54:00,
2013-09-09 22:59:00,78.3,70.5,29.97,North,32767,0.0,0.0,77,0.00,,,0.00,Wunderground v.1.13,2013-09-10 02:59:00,
2013-09-09 23:04:00,78.1,70.7,29.98,North,32767,0.0,0.0,78,0.00,,,0.00,Wunderground v.1.13,2013-09-10 03:04:00,
2013-09-09 23:09:00,78.1,70.7,29.98,North,32767,0.0,0.0,78,0.00,,,0.00,Wunderground v.1.13,2013-09-10 03:09:00,
2013-09-09 23:14:00,77.9,70.5,29.98,North,32767,0.0,0.0,78,0.00,,,0.00,Wunderground v.1.13,2013-09-10 03:14:00,
2013-09-09 23:19:00,77.7,70.3,29.98,North,32767,0.0,0.0,78,0.00,,,0.00,Wunderground v.1.13,2013-09-10 03:19:00,
2013-09-09 23:24:00,77.7,70.7,29.98,North,32767,0.0,0.0,79,0.00,,,0.00,Wunderground v.1.13,2013-09-10 03:24:00,
2013-09-09 23:29:00,77.6,70.6,29.98,North,32767,0.0,0.0,79,0.00,,,0.00,Wunderground v.1.13,2013-09-10 03:29:00,
2013-09-09 23:34:00,77.4,70.4,29.97,North,32767,0.0,0.0,79,0.00,,,0.00,Wunderground v.1.13,2013-09-10 03:34:00,
2013-09-09 23:39:00,77.2,70.2,29.97,North,32767,0.0,0.0,79,0.00,,,0.00,Wunderground v.1.13,2013-09-10 03:39:00,
2013-09-09 23:40:00,77.2,70.2,29.97,North,-999,0.0,0.0,79,0.00,,,-99.99,WeatherLink 6.0.2,2013-09-10 03:40:00,
2013-09-09 23:44:00,77.2,70.2,29.97,North,32767,0.0,0.0,79,0.00,,,0.00,Wunderground v.1.13,2013-09-10 03:44:00,
2013-09-09 23:45:00,77.0,70.0,29.97,North,-999,0.0,0.0,79,0.00,,,-99.99,WeatherLink 6.0.2,2013-09-10 03:45:00,
2013-09-09 23:49:00,77.0,70.0,29.97,North,32767,0.0,0.0,79,0.00,,,0.00,Wunderground v.1.13,2013-09-10 03:49:00,
2013-09-09 23:50:00,76.8,69.8,29.97,North,-999,0.0,0.0,79,0.00,,,-99.99,WeatherLink 6.0.2,2013-09-10 03:50:00,
2013-09-09 23:54:00,76.8,70.2,29.97,North,32767,0.0,0.0,80,0.00,,,0.00,Wunderground v.1.13,2013-09-10 03:54:00,